Location: *
(38.3914°N, 75.0697°W)
Time: 10:07:44
(UTC+00:00)

OE (NEXTSAT) - Pass Details

Date: 17 February 2020
Orbit: 432 x 441 km, 46.0° (Epoch: 04 April)

Event Time Altitude Azimuth Distance (km) Brightness Sun altitude
Rises 00:00:03 0° 236° (WSW) 2,394 9.1 -16.5°
Reaches altitude 10° 00:02:10 10° 235° (SW) 1,531 8.0 -16.9°
Maximum altitude 00:05:38 77° 149° (SSE) 449 4.2 -17.6°
Enters shadow 00:06:22 52° 76° (ENE) 548 4.4 -17.7°
